Blattenbach Aussen Messungen

Zurück zum Überblick

Zeitpunkt Temperatur Temperatur Kabelsensor Luftfeuchte
26.03.2019 08:42:03 5,4 C 7,0 C 67,0%
26.03.2019 08:35:00 5,4 C 7,0 C 68,0%
26.03.2019 08:28:01 5,0 C 7,0 C 69,0%
26.03.2019 08:21:01 4,9 C 7,0 C 69,0%
26.03.2019 08:14:01 4,8 C 7,0 C 69,0%
26.03.2019 08:07:03 4,9 C 7,0 C 69,0%
26.03.2019 08:00:02 4,8 C 7,0 C 70,0%
26.03.2019 07:53:00 4,7 C 7,0 C 69,0%
26.03.2019 07:46:00 4,8 C 7,1 C 70,0%
26.03.2019 07:39:01 4,5 C 7,1 C 71,0%
26.03.2019 07:32:00 4,2 C 7,1 C 71,0%
26.03.2019 07:25:01 3,9 C 7,1 C 72,0%
26.03.2019 07:18:00 3,6 C 7,1 C 72,0%
26.03.2019 07:10:59 3,5 C 7,1 C 73,0%
26.03.2019 07:04:01 3,6 C 7,1 C 73,0%
26.03.2019 06:57:01 3,6 C 7,1 C 73,0%
26.03.2019 06:50:03 3,5 C 7,1 C 74,0%
26.03.2019 06:43:00 3,5 C 7,2 C 74,0%
26.03.2019 06:36:04 3,4 C 7,2 C 75,0%
26.03.2019 06:28:59 3,3 C 7,2 C 74,0%
26.03.2019 06:22:03 3,2 C 7,2 C 75,0%
26.03.2019 06:15:00 3,1 C 7,2 C 75,0%
26.03.2019 06:08:01 3,0 C 7,3 C 76,0%
26.03.2019 06:01:00 2,9 C 7,3 C 76,0%
26.03.2019 05:54:03 2,9 C 7,3 C 76,0%
26.03.2019 05:47:03 2,9 C 7,3 C 76,0%
26.03.2019 05:40:01 3,0 C 7,3 C 75,0%
26.03.2019 05:33:02 3,3 C 7,3 C 74,0%
26.03.2019 05:26:02 3,4 C 7,3 C 74,0%
26.03.2019 05:19:02 3,3 C 7,3 C 74,0%
26.03.2019 05:12:02 3,1 C 7,3 C 74,0%
26.03.2019 05:05:03 3,2 C 7,3 C 74,0%
26.03.2019 04:58:03 3,1 C 7,4 C 74,0%
26.03.2019 04:51:00 3,1 C 7,4 C 74,0%
26.03.2019 04:44:02 3,0 C 7,4 C 75,0%
26.03.2019 04:37:01 2,8 C 7,4 C 75,0%
26.03.2019 04:30:01 2,7 C 7,4 C 75,0%
26.03.2019 04:23:03 2,7 C 7,4 C 75,0%
26.03.2019 04:16:00 2,7 C 7,4 C 75,0%
26.03.2019 04:09:02 2,8 C 7,5 C 75,0%
26.03.2019 04:02:04 2,9 C 7,5 C 75,0%
26.03.2019 03:54:59 3,1 C 7,5 C 75,0%
26.03.2019 03:48:03 3,2 C 7,5 C 75,0%
26.03.2019 03:41:02 3,5 C 7,5 C 75,0%
26.03.2019 03:34:03 3,7 C 7,5 C 75,0%
26.03.2019 03:27:04 3,8 C 7,5 C 75,0%
26.03.2019 03:20:01 3,7 C 7,5 C 76,0%
26.03.2019 03:13:01 3,7 C 7,5 C 76,0%
26.03.2019 03:06:01 3,8 C 7,6 C 76,0%
26.03.2019 02:59:02 3,8 C 7,6 C 76,0%